Date/Time,DATE_UTC,TIME_UTC,LONGITUDE,LATITUDE,Depth water [m],Sal (PSU),Temp [°C],Sal interp (extracted from the World Ocea...),PPPP interp [hPa] (extracted from the NCEP/NCAR ...),Bathy depth interp/grid [m] (extracted from the 2-Minute G...),"Distance [km] (d2l, estimated distance to ma...)",pCO2water_SST_wet [µatm],fCO2water_SST_wet [µatm],"fCO2water_SST_wet [µatm] (fCO2rec, Recomputed after SOC...)","Algorithm (fCO2rec_src, Algorithm for ge...)","Flag [#] (fCO2rec_flag, WOCE quality fl...)"
2018-03-19T05:45,2018-03-19,05:45,178.72032999999999,-37.600439999999999,5,35.664999999999999,20.861999999999998,35,1027.4000000000001,130,58,,,,0,9
2018-03-19T05:46,2018-03-19,05:46,178.72053,-37.603920000000002,5,35.735999999999997,20.274999999999999,35,1027.4000000000001,129,58,,,,0,9
2018-03-19T05:48,2018-03-19,05:48,178.72078999999999,-37.610970000000002,5,35.542000000000002,20.277999999999999,35,1027.4000000000001,127,58,370.26299999999998,368.291,368.291,6,2
2018-03-19T05:51,2018-03-19,05:51,178.72139999999999,-37.621090000000002,5,35.301000000000002,20.596,35,1027.4000000000001,126,57,370.94499999999999,368.97300000000001,368.97300000000001,6,2
2018-03-19T05:57,2018-03-19,05:57,178.72429,-37.643380000000001,5,35.369,20.85,35,1027.4000000000001,126,57,,,,0,9
2018-03-19T05:58,2018-03-19,05:58,178.72483,-37.64658,5,35.584000000000003,20.254999999999999,35,1027.4000000000001,127,57,,,,0,9
2018-03-19T05:59,2018-03-19,05:59,178.72537,-37.650179999999999,5,35.441000000000003,20.088000000000001,35,1027.4000000000001,127,56,,,,0,9
2018-03-19T06:14,2018-03-19,06:14,178.73480000000001,-37.705219999999997,5,35.341000000000001,20.390999999999998,35,1029.5,127,55,437.69,435.35300000000001,435.35300000000001,6,2
2018-03-19T06:20,2018-03-19,06:20,178.73741999999999,-37.726979999999998,5,35.326000000000001,20.248000000000001,35,1029.5,129,54,436.714,434.37799999999999,434.37799999999999,6,2
2018-03-19T06:21,2018-03-19,06:21,178.738,-37.73066,5,35.314,20.527000000000001,35,1029.5,130,54,436.642,434.31099999999998,434.31099999999998,6,2
2018-03-19T06:22,2018-03-19,06:22,178.73860999999999,-37.734189999999998,5,35.365000000000002,20.663,35,1029.5,131,54,436.67200000000003,434.34300000000002,434.34300000000002,6,2
2018-03-19T06:23,2018-03-19,06:23,178.73921000000001,-37.737810000000003,5,35.398000000000003,20.736999999999998,35,1029.5,132,54,436.71100000000001,434.38200000000001,434.38200000000001,6,2
2018-03-19T06:24,2018-03-19,06:24,178.73988,-37.741419999999998,5,35.406999999999996,20.797999999999998,35,1029.5,133,54,436.77199999999999,434.44299999999998,434.44299999999998,6,2
2018-03-19T06:26,2018-03-19,06:26,178.74108000000001,-37.748559999999998,5,35.426000000000002,20.884,35,1029.5,134,54,436.80500000000001,434.47800000000001,434.47800000000001,6,2
2018-03-19T06:27,2018-03-19,06:27,178.74172999999999,-37.751939999999998,5,35.433999999999997,20.9,35,1029.5,136,54,436.81400000000002,434.48599999999999,434.48599999999999,6,2
2018-03-19T06:28,2018-03-19,06:28,178.74227999999999,-37.755459999999999,5,35.433,20.899000000000001,35,1029.5,137,54,436.887,434.55799999999999,434.55799999999999,6,2
2018-03-19T06:29,2018-03-19,06:29,178.74312,-37.759079999999997,5,35.430999999999997,20.911000000000001,35,1029.5,139,54,436.88099999999997,434.55200000000002,434.55200000000002,6,2
2018-03-19T06:30,2018-03-19,06:30,178.74411000000001,-37.762639999999998,5,35.436,20.922999999999998,35,1029.5,141,53,436.87700000000001,434.54899999999998,434.54899999999998,6,2
2018-03-19T06:31,2018-03-19,06:31,178.74533,-37.766019999999997,5,35.433999999999997,20.931999999999999,35,1029.5,143,53,436.88099999999997,434.553,434.553,6,2
2018-03-19T06:32,2018-03-19,06:32,178.74641,-37.769329999999997,5,35.438000000000002,20.937999999999999,35,1029.5,145,53,436.85899999999998,434.53,434.53,6,2
2018-03-19T06:33,2018-03-19,06:33,178.74732,-37.772750000000002,5,35.44,20.937000000000001,35,1029.5,147,53,436.89400000000001,434.56599999999997,434.56599999999997,6,2
2018-03-19T06:34,2018-03-19,06:34,178.74770000000001,-37.776110000000003,5,35.442999999999998,20.934999999999999,35,1029.5,149,53,436.85399999999998,434.52600000000001,434.52600000000001,6,2
2018-03-19T06:35,2018-03-19,06:35,178.74757,-37.77937,5,35.442999999999998,20.931999999999999,35,1029.5,150,53,436.82,434.49200000000002,434.49200000000002,6,2
2018-03-19T06:37,2018-03-19,06:37,178.74859000000001,-37.786900000000003,5,35.44,20.925999999999998,35,1029.5,157,53,436.709,434.38,434.38,6,2
2018-03-19T06:38,2018-03-19,06:38,178.74888999999999,-37.790480000000002,5,35.438000000000002,20.923999999999999,35,1029.5,162,53,436.67399999999998,434.34500000000003,434.34500000000003,6,2
2018-03-19T06:39,2018-03-19,06:39,178.74956,-37.79392,5,35.44,20.922000000000001,35,1029.5,167,53,436.64299999999997,434.31299999999999,434.31299999999999,6,2
2018-03-19T06:40,2018-03-19,06:40,178.75037,-37.797229999999999,5,35.445999999999998,20.917999999999999,35,1030.3,174,53,436.65199999999999,434.322,434.322,6,2
2018-03-19T06:41,2018-03-19,06:41,178.75120999999999,-37.801049999999996,5,35.445,20.917000000000002,35,1030.3,182,53,436.61,434.28,434.28,6,2
2018-03-19T06:42,2018-03-19,06:42,178.75189,-37.80491,5,35.447000000000003,20.911999999999999,35,1030.3,191,53,436.60300000000001,434.27300000000002,434.27300000000002,6,2
2018-03-19T06:45,2018-03-19,06:45,178.75536,-37.819560000000003,5,35.402999999999999,20.981999999999999,35,1030.3,234,52,435.279,432.91699999999997,432.91699999999997,6,2
2018-03-20T01:33,2018-03-20,01:33,179.53512000000001,-43.9056,5,34.424999999999997,16.332000000000001,34.774000000000001,1033.5999999999999,523,420,,,,0,9
2018-03-20T01:34,2018-03-20,01:34,179.5361,-43.910939999999997,5,34.421999999999997,16.175000000000001,34.774000000000001,1033.5999999999999,525,421,,,,0,9
2018-03-20T01:35,2018-03-20,01:35,179.53712999999999,-43.916809999999998,5,34.384,16.14,34.774000000000001,1033.5999999999999,528,421,,,,0,9
2018-03-20T01:36,2018-03-20,01:36,179.53789,-43.922719999999998,5,34.381999999999998,16.119,34.774000000000001,1033.5999999999999,532,422,,,,0,9
2018-03-20T01:37,2018-03-20,01:37,179.53831,-43.92886,5,34.372999999999998,16.103000000000002,34.774000000000001,1033.5999999999999,536,422,,,,0,9
2018-03-20T01:38,2018-03-20,01:38,179.53915000000001,-43.934719999999999,5,34.360999999999997,16.088999999999999,34.774000000000001,1033.5999999999999,540,423,,,,0,9
2018-03-20T01:39,2018-03-20,01:39,179.54032000000001,-43.940440000000002,5,34.353000000000002,16.100999999999999,34.774000000000001,1033.5999999999999,543,423,,,,0,9
2018-03-20T01:40,2018-03-20,01:40,179.54139000000001,-43.946469999999998,5,34.359000000000002,16.088000000000001,34.774000000000001,1033.5999999999999,547,423,,,,0,9
2018-03-20T01:41,2018-03-20,01:41,179.54222999999999,-43.952509999999997,5,34.36,16.081,34.774000000000001,1033.5999999999999,551,424,,,,0,9
2018-03-20T01:42,2018-03-20,01:42,179.54294999999999,-43.958509999999997,5,34.369,16.068000000000001,34.774000000000001,1033.5999999999999,556,424,,,,0,9
2018-03-20T01:43,2018-03-20,01:43,179.5436,-43.964460000000003,5,34.365000000000002,16.073,34.774000000000001,1033.5999999999999,561,425,,,,0,9
2018-03-20T01:44,2018-03-20,01:44,179.54398,-43.970750000000002,5,34.36,16.082000000000001,34.774000000000001,1033.5999999999999,566,425,,,,0,9
2018-03-20T01:45,2018-03-20,01:45,179.54482999999999,-43.9771,5,34.356000000000002,16.093,34.774000000000001,1033.5999999999999,572,426,,,,0,9
2018-03-20T01:46,2018-03-20,01:46,179.54589999999999,-43.983449999999998,5,34.360999999999997,16.087,34.774000000000001,1033.5999999999999,578,426,,,,0,9
2018-03-20T01:47,2018-03-20,01:47,179.54754,-43.989649999999997,5,34.365000000000002,16.079999999999998,34.774000000000001,1033.5999999999999,585,427,,,,0,9
2018-03-20T01:49,2018-03-20,01:49,179.55022,-44.006549999999997,5,34.359000000000002,16.094999999999999,34.582000000000001,1033.5999999999999,604,428,437.54199999999997,435.18599999999998,435.18599999999998,6,2
2018-03-21T21:07,2018-03-21,21:07,-164.25299000000001,-53.563789999999997,5,34.639000000000003,16.837,34.182000000000002,1027.5,4981,1000,,,,0,9
2018-03-21T21:08,2018-03-21,21:08,-164.23388,-53.563690000000001,5,35.820999999999998,9.0790000000000006,34.182000000000002,1027.5,4971,1000,,,,0,9
2018-03-21T21:09,2018-03-21,21:09,-164.22369,-53.563330000000001,5,34.75,8.423,34.182000000000002,1027.5,4965,1000,,,,0,9
2018-03-21T21:10,2018-03-21,21:10,-164.2131,-53.563220000000001,5,34.332000000000001,8.3309999999999995,34.182000000000002,1027.5,4957,1000,,,,0,9
2018-03-21T21:11,2018-03-21,21:11,-164.20227,-53.562939999999998,5,34.115000000000002,8.3070000000000004,34.182000000000002,1027.5,4944,1000,,,,0,9
2018-03-21T21:12,2018-03-21,21:12,-164.19161,-53.56259,5,34.003,8.3049999999999997,34.182000000000002,1027.5,4931,1000,,,,0,9
2018-03-21T21:13,2018-03-21,21:13,-164.18108000000001,-53.562390000000001,5,33.97,8.3140000000000001,34.182000000000002,1027.5,4917,1000,,,,0,9
2018-03-21T21:14,2018-03-21,21:14,-164.17037999999999,-53.562109999999997,5,33.941000000000003,8.3209999999999997,34.182000000000002,1027.5,4899,1000,,,,0,9
2018-03-21T21:15,2018-03-21,21:15,-164.15953999999999,-53.561799999999998,5,33.927,8.3360000000000003,34.182000000000002,1027.5,4881,1000,,,,0,9
2018-03-21T21:19,2018-03-21,21:19,-164.11659,-53.560339999999997,5,33.927,8.3559999999999999,34.182000000000002,1027.5,4809,1000,,,,0,9
2018-03-21T21:20,2018-03-21,21:20,-164.10596000000001,-53.55988,5,33.930999999999997,8.3480000000000008,34.182000000000002,1027.5,4793,1000,,,,0,9
2018-03-21T21:21,2018-03-21,21:21,-164.09457,-53.559730000000002,5,33.927999999999997,8.35,34.182000000000002,1027.5,4777,1000,,,,0,9
2018-03-21T21:22,2018-03-21,21:22,-164.08327,-53.559489999999997,5,33.93,8.3469999999999995,34.182000000000002,1027.5,4760,1000,,,,0,9
2018-03-21T21:23,2018-03-21,21:23,-164.07232999999999,-53.559240000000003,5,33.929000000000002,8.3450000000000006,34.182000000000002,1027.5,4747,1000,,,,0,9
2018-03-21T21:24,2018-03-21,21:24,-164.06125,-53.5593,5,33.915999999999997,8.3740000000000006,34.182000000000002,1027.5,4733,1000,,,,0,9
2018-03-21T21:25,2018-03-21,21:25,-164.05035000000001,-53.559069999999998,5,33.909999999999997,8.407,34.182000000000002,1027.5,4719,1000,,,,0,9
2018-03-21T21:26,2018-03-21,21:26,-164.03927999999999,-53.558619999999998,5,33.93,8.4160000000000004,34.182000000000002,1027.5,4707,1000,,,,0,9
2018-03-21T21:28,2018-03-21,21:28,-164.01731000000001,-53.558199999999999,5,33.93,8.423,34.182000000000002,1027.5,4682,1000,,,,0,9
2018-03-21T21:35,2018-03-21,21:35,-163.93899999999999,-53.556840000000001,5,33.921999999999997,8.4459999999999997,34.18,1027.5,4616,1000,,,,0,9
2018-03-21T21:39,2018-03-21,21:39,-163.89603,-53.556080000000001,5,33.906999999999996,8.4260000000000002,34.18,1027.5,4599,1000,,,,0,9
2018-03-21T21:41,2018-03-21,21:41,-163.87530000000001,-53.55565,5,33.898000000000003,8.4489999999999998,34.18,1027.5,4603,1000,,,,0,9
2018-03-21T21:42,2018-03-21,21:42,-163.86532,-53.55545,5,33.895000000000003,8.4589999999999996,34.18,1027.5,4609,1000,,,,0,9
2018-03-21T21:45,2018-03-21,21:45,-163.83511999999999,-53.554490000000001,5,33.896000000000001,8.4779999999999998,34.18,1027.5,4640,1000,,,,0,9
2018-03-21T21:46,2018-03-21,21:46,-163.82486,-53.554110000000001,5,33.890999999999998,8.4890000000000008,34.18,1027.5,4656,1000,,,,0,9
2018-03-21T21:47,2018-03-21,21:47,-163.81434999999999,-53.554070000000003,5,33.89,8.5030000000000001,34.18,1027.5,4674,1000,,,,0,9
2018-03-21T21:52,2018-03-21,21:52,-163.76328000000001,-53.553730000000002,5,33.890999999999998,8.5350000000000001,34.18,1027.5,4824,1000,,,,0,9
2018-03-21T21:54,2018-03-21,21:54,-163.74274,-53.553849999999997,5,33.89,8.5250000000000004,34.18,1028.4000000000001,4888,1000,,,,0,9
2018-03-21T21:55,2018-03-21,21:55,-163.73278999999999,-53.553339999999999,5,33.886000000000003,8.5299999999999994,34.18,1028.4000000000001,4910,1000,,,,0,9
2018-03-21T21:56,2018-03-21,21:56,-163.72316000000001,-53.552370000000003,5,33.89,8.5329999999999995,34.18,1028.4000000000001,4930,1000,,,,0,9
2018-03-21T21:57,2018-03-21,21:57,-163.71292,-53.551789999999997,5,33.886000000000003,8.5370000000000008,34.18,1028.4000000000001,4954,1000,,,,0,9
2018-03-21T22:00,2018-03-21,22:00,-163.68147999999999,-53.550710000000002,5,33.893000000000001,8.5039999999999996,34.18,1028.4000000000001,5031,1000,,,,0,9
2018-03-21T22:01,2018-03-21,22:01,-163.67104,-53.550460000000001,5,33.893999999999998,8.4920000000000009,34.18,1028.4000000000001,5061,1000,,,,0,9
2018-03-21T22:02,2018-03-21,22:02,-163.66055,-53.550440000000002,5,33.884999999999998,8.5030000000000001,34.18,1028.4000000000001,5091,1000,,,,0,9
2018-03-21T22:03,2018-03-21,22:03,-163.65037000000001,-53.550330000000002,5,33.887,8.5079999999999991,34.18,1028.4000000000001,5120,1000,,,,0,9
2018-03-21T22:04,2018-03-21,22:04,-163.6396,-53.550060000000002,5,33.887,8.5050000000000008,34.18,1028.4000000000001,5141,1000,,,,0,9
2018-03-21T22:05,2018-03-21,22:05,-163.62905000000001,-53.549709999999997,5,33.883000000000003,8.5109999999999992,34.18,1028.4000000000001,5161,1000,,,,0,9
2018-03-21T22:08,2018-03-21,22:08,-163.59808000000001,-53.548960000000001,5,33.884,8.4830000000000005,34.18,1028.4000000000001,5202,1000,,,,0,9
2018-03-21T22:09,2018-03-21,22:09,-163.58785,-53.548859999999998,5,33.866,8.5129999999999999,34.18,1028.4000000000001,5211,1000,,,,0,9
2018-03-21T22:10,2018-03-21,22:10,-163.57726,-53.548990000000003,5,33.895000000000003,8.4960000000000004,34.18,1028.4000000000001,5214,1000,,,,0,9
2018-03-21T22:11,2018-03-21,22:11,-163.56708,-53.549129999999998,5,33.902999999999999,8.4789999999999992,34.18,1028.4000000000001,5210,1000,,,,0,9
2018-03-22T22:12,2018-03-22,22:12,-163.56026,-53.549120000000002,5,33.886000000000003,8.49,34.18,1025.5,5208,1000,,,,0,9
2018-03-24T23:35,2018-03-24,23:35,-127.03716,-50.66686,5,34.218000000000004,17.106999999999999,34.332999999999998,997.8,4001,1000,,,,0,9
2018-03-24T23:36,2018-03-24,23:36,-127.03310999999999,-50.66789,5,35.034999999999997,16.048999999999999,34.332999999999998,997.8,3998,1000,,,,0,9
2018-03-24T23:37,2018-03-24,23:37,-127.02563000000001,-50.669690000000003,5,37.448999999999998,10.949,34.332999999999998,997.8,3993,1000,,,,0,9
2018-03-24T23:38,2018-03-24,23:38,-127.0176,-50.671559999999999,5,35.883000000000003,8.6739999999999995,34.332999999999998,997.8,3988,1000,,,,0,9
2018-03-24T23:39,2018-03-24,23:39,-127.00987000000001,-50.67353,5,34.923000000000002,8.2370000000000001,34.332999999999998,997.8,3981,1000,,,,0,9
2018-03-24T23:40,2018-03-24,23:40,-127.00269,-50.67606,5,34.561999999999998,8.1170000000000009,34.332999999999998,997.8,3973,1000,,,,0,9
2018-03-24T23:41,2018-03-24,23:41,-126.99518999999999,-50.678649999999998,5,34.534999999999997,8.0619999999999994,34.332000000000001,997.8,3964,1000,,,,0,9
2018-03-24T23:42,2018-03-24,23:42,-126.9875,-50.681269999999998,5,34.384,8.0310000000000006,34.332000000000001,997.8,3955,1000,,,,0,9
2018-03-24T23:43,2018-03-24,23:43,-126.98036,-50.683709999999998,5,34.314999999999998,8.0470000000000006,34.332000000000001,997.8,3946,1000,,,,0,9
2018-03-24T23:44,2018-03-24,23:44,-126.97253000000001,-50.686210000000003,5,34.219000000000001,8.0739999999999998,34.332000000000001,997.8,3937,1000,,,,0,9
2018-03-24T23:45,2018-03-24,23:45,-126.96365,-50.688400000000001,5,34.198999999999998,8.0869999999999997,34.332000000000001,997.8,3927,1000,,,,0,9
2018-03-24T23:46,2018-03-24,23:46,-126.95586,-50.690269999999998,5,34.185000000000002,8.1069999999999993,34.332000000000001,997.8,3918,1000,,,,0,9
2018-03-24T23:47,2018-03-24,23:47,-126.94802,-50.692570000000003,5,34.174999999999997,8.1259999999999994,34.332000000000001,997.8,3909,1000,,,,0,9
2018-03-24T23:48,2018-03-24,23:48,-126.93916,-50.694609999999997,5,34.185000000000002,8.1229999999999993,34.332000000000001,997.8,3900,1000,,,,0,9
2018-03-24T23:49,2018-03-24,23:49,-126.93087,-50.696570000000001,5,34.189,8.1270000000000007,34.332000000000001,997.8,3893,1000,,,,0,9
2018-03-24T23:50,2018-03-24,23:50,-126.92368999999999,-50.698749999999997,5,34.186999999999998,8.1359999999999992,34.332000000000001,997.8,3885,1000,,,,0,9
2018-03-24T23:51,2018-03-24,23:51,-126.91549000000001,-50.700780000000002,5,34.18,8.1609999999999996,34.332000000000001,997.8,3878,1000,,,,0,9
2018-03-24T23:52,2018-03-24,23:52,-126.90818,-50.703139999999998,5,34.188000000000002,8.18,34.332000000000001,997.8,3874,1000,,,,0,9
2018-03-24T23:53,2018-03-24,23:53,-126.90028,-50.705689999999997,5,34.188000000000002,8.1959999999999997,34.332000000000001,997.8,3870,1000,,,,0,9
2018-03-24T23:54,2018-03-24,23:54,-126.89165,-50.708190000000002,5,34.188000000000002,8.2159999999999993,34.332000000000001,997.8,3865,1000,,,,0,9
2018-03-24T23:55,2018-03-24,23:55,-126.88342,-50.710610000000003,5,34.192999999999998,8.2289999999999992,34.332000000000001,997.8,3860,1000,,,,0,9
2018-03-25T00:01,2018-03-25,00:01,-126.83034000000001,-50.726039999999998,5,34.206000000000003,8.2520000000000007,34.332000000000001,1000.6,3892,1000,439.24,436.625,436.625,6,2
2018-03-25T00:02,2018-03-25,00:02,-126.82080000000001,-50.728200000000001,5,34.204999999999998,8.2509999999999994,34.332000000000001,1000.6,3901,1000,439.29599999999999,436.68,436.68,6,2
2018-03-25T00:03,2018-03-25,00:03,-126.81133,-50.729779999999998,5,34.204000000000001,8.2520000000000007,34.332000000000001,1000.6,3910,1000,439.32,436.70299999999997,436.70299999999997,6,2
2018-03-25T00:04,2018-03-25,00:04,-126.80233,-50.731569999999998,5,34.201999999999998,8.2550000000000008,34.332000000000001,1000.6,3917,1000,439.34699999999998,436.72899999999998,436.72899999999998,6,2
2018-03-25T00:05,2018-03-25,00:05,-126.79304999999999,-50.733139999999999,5,34.206000000000003,8.2520000000000007,34.332000000000001,1000.6,3925,1000,439.34,436.72199999999998,436.72199999999998,6,2
2018-03-25T00:06,2018-03-25,00:06,-126.78376,-50.734789999999997,5,34.207000000000001,8.2420000000000009,34.332000000000001,1000.6,3933,1000,439.346,436.72699999999998,436.72699999999998,6,2
2018-03-25T00:07,2018-03-25,00:07,-126.77419,-50.736379999999997,5,34.207000000000001,8.2330000000000005,34.332000000000001,1000.6,3936,1000,439.37799999999999,436.76,436.76,6,2
2018-03-25T00:08,2018-03-25,00:08,-126.76533999999999,-50.738230000000001,5,34.206000000000003,8.2279999999999998,34.332000000000001,1000.6,3939,1000,439.36399999999998,436.745,436.745,6,2
2018-03-25T00:09,2018-03-25,00:09,-126.7556,-50.740110000000001,5,34.204999999999998,8.23,34.332000000000001,1000.6,3941,1000,439.39100000000002,436.77100000000002,436.77100000000002,6,2
2018-03-25T00:10,2018-03-25,00:10,-126.74559000000001,-50.74145,5,34.204999999999998,8.2289999999999992,34.332000000000001,1000.6,3945,1000,439.40199999999999,436.78199999999998,436.78199999999998,6,2
2018-03-25T00:11,2018-03-25,00:11,-126.73642,-50.742800000000003,5,34.203000000000003,8.2330000000000005,34.332000000000001,1000.6,3948,1000,439.36599999999999,436.74599999999998,436.74599999999998,6,2
2018-03-25T00:12,2018-03-25,00:12,-126.72723999999999,-50.744570000000003,5,34.197000000000003,8.2490000000000006,34.332000000000001,1000.6,3952,1000,439.35599999999999,436.73599999999999,436.73599999999999,6,2
2018-03-25T00:13,2018-03-25,00:13,-126.71897,-50.746659999999999,5,34.192,8.2710000000000008,34.332000000000001,1000.6,3954,1000,439.35599999999999,436.73599999999999,436.73599999999999,6,2
2018-03-25T00:14,2018-03-25,00:14,-126.71015,-50.748660000000001,5,34.191000000000003,8.2959999999999994,34.332000000000001,1000.6,3956,1000,439.35599999999999,436.73700000000002,436.73700000000002,6,2
2018-03-25T00:15,2018-03-25,00:15,-126.70247000000001,-50.75103,5,34.194000000000003,8.3219999999999992,34.332000000000001,1000.6,3957,1000,439.34199999999998,436.72300000000001,436.72300000000001,6,2
2018-03-25T00:16,2018-03-25,00:16,-126.69423,-50.75338,5,34.209000000000003,8.3339999999999996,34.332000000000001,1000.6,3958,1000,439.34,436.721,436.721,6,2
2018-03-25T00:17,2018-03-25,00:17,-126.68603,-50.755899999999997,5,34.220999999999997,8.3119999999999994,34.332000000000001,1000.6,3958,1000,439.33499999999998,436.71499999999997,436.71499999999997,6,2
2018-03-25T00:18,2018-03-25,00:18,-126.67775,-50.758369999999999,5,34.206000000000003,8.3249999999999993,34.332000000000001,1000.6,3959,1000,439.28899999999999,436.67,436.67,6,2
2018-03-25T00:19,2018-03-25,00:19,-126.66955,-50.760910000000003,5,34.215000000000003,8.3179999999999996,34.332000000000001,1000.6,3959,1000,439.27,436.65100000000001,436.65100000000001,6,2
2018-03-25T00:20,2018-03-25,00:20,-126.66242,-50.763390000000001,5,34.212000000000003,8.2850000000000001,34.332000000000001,1000.6,3960,1000,439.274,436.654,436.654,6,2
2018-03-25T00:21,2018-03-25,00:21,-126.65582999999999,-50.766120000000001,5,34.146000000000001,8.2759999999999998,34.332000000000001,1000.6,3960,1000,439.303,436.68299999999999,436.68299999999999,6,2
2018-03-25T00:22,2018-03-25,00:22,-126.6491,-50.768630000000002,5,34.158999999999999,8.2739999999999991,34.332000000000001,1000.6,3962,1000,439.27600000000001,436.65600000000001,436.65600000000001,6,2
2018-03-25T00:23,2018-03-25,00:23,-126.64239000000001,-50.770380000000003,5,34.167000000000002,8.27,34.332000000000001,1000.6,3964,1000,439.26900000000001,436.649,436.649,6,2
2018-03-25T00:24,2018-03-25,00:24,-126.63623,-50.772239999999996,5,34.161999999999999,8.2690000000000001,34.332000000000001,1000.6,3966,1000,439.24,436.62,436.62,6,2
2018-03-25T00:25,2018-03-25,00:25,-126.62945000000001,-50.774459999999998,5,34.140999999999998,8.2780000000000005,34.332000000000001,1000.6,3969,1000,439.214,436.59399999999999,436.59399999999999,6,2
2018-03-25T00:26,2018-03-25,00:26,-126.62255,-50.777180000000001,5,34.139000000000003,8.2829999999999995,34.332000000000001,1000.6,3972,1000,439.24900000000002,436.62900000000002,436.62900000000002,6,2
2018-03-25T00:27,2018-03-25,00:27,-126.61507,-50.779559999999996,5,34.155000000000001,8.2929999999999993,34.332000000000001,1000.6,3976,1000,439.23500000000001,436.61500000000001,436.61500000000001,6,2
2018-03-25T00:28,2018-03-25,00:28,-126.60834,-50.781649999999999,5,34.162999999999997,8.3019999999999996,34.332000000000001,1000.6,3979,1000,439.24900000000002,436.62900000000002,436.62900000000002,6,2
2018-03-25T00:29,2018-03-25,00:29,-126.60248,-50.783569999999997,5,34.168999999999997,8.3030000000000008,34.332000000000001,1000.6,3982,1000,439.25099999999998,436.63200000000001,436.63200000000001,6,2
2018-03-25T00:30,2018-03-25,00:30,-126.59108000000001,-50.786490000000001,5,34.161000000000001,8.3079999999999998,34.332000000000001,1000.6,3987,1000,439.34300000000002,436.726,436.726,6,2
2018-03-28T00:06,2018-03-28,00:06,-89.103459999999998,-53.675409999999999,5,33.911999999999999,14.824,34.14,985,4761,951,,,,0,9
2018-03-28T00:12,2018-03-28,00:12,-89.051479999999998,-53.663429999999998,5,34.243000000000002,7.0869999999999997,34.14,985,4818,947,,,,0,9
2018-03-28T00:16,2018-03-28,00:16,-89.012680000000003,-53.656289999999998,5,34.098999999999997,7.0529999999999999,34.14,985,4881,945,,,,0,9
2018-03-28T00:17,2018-03-28,00:17,-89.004490000000004,-53.654620000000001,5,34.091999999999999,7.0490000000000004,34.14,985,4889,944,,,,0,9
2018-03-28T00:18,2018-03-28,00:18,-88.995670000000004,-53.65278,5,34.088999999999999,7.0460000000000003,34.137,985,4898,944,,,,0,9
2018-03-28T00:19,2018-03-28,00:19,-88.986580000000004,-53.650849999999998,5,34.090000000000003,7.0439999999999996,34.137,985,4906,943,,,,0,9
2018-03-28T00:20,2018-03-28,00:20,-88.9773,-53.648710000000001,5,34.091000000000001,7.0410000000000004,34.137,985,4910,942,,,,0,9
2018-03-28T00:21,2018-03-28,00:21,-88.968289999999996,-53.646369999999997,5,34.088000000000001,7.0380000000000003,34.137,985,4912,942,,,,0,9
2018-03-28T00:22,2018-03-28,00:22,-88.959109999999995,-53.643949999999997,5,34.087000000000003,7.0389999999999997,34.137,985,4913,941,,,,0,9
2018-03-28T00:23,2018-03-28,00:23,-88.950460000000007,-53.641579999999998,5,34.087000000000003,7.0389999999999997,34.137,985,4915,941,,,,0,9